Aeroporto :
LOGIN :

Iscrizione | Disclaimer

   EN    FR    IT 

 










Sommario :    VFR   VFR Marginale   IFR   IFR Intensivo   IFR Molto Intensivo
Visibilità : 
Base nubi : 
>= 8 km
>= 3000ft
5 / 8 km
1000 / 3000 ft
1500m / 5 km
500 / 1000 ft
800 / 1500m
200 / 500 ft
< 800m
< 200 ft
Simboli :   Temporali  Nebbia  Neve Forte  Precipitazioni Forti  Vento > 20 kt
SIGMETs :   Varie  Temporali  Ghiacco  Turbolenza  Onda orograficha  Ceneri Vulcaniche






- Altitudine del aeroporto : 1178 ft
- Codice IATA : EVG


ESND - Sveg

ULTIMO METAR :
  • 290320Z AUTO VRB02KT 9999 FEW051/// BKN078/// M07/M11 Q1028

METARs OBSOLETI :
  • 290250Z AUTO 27004KT 240V300 9999 FEW078/// M07/M11 Q1028
  • 290220Z AUTO 25006KT 9999 NCD M07/M11 Q1028
  • 290150Z AUTO 24007KT 9999 NCD M07/M11 Q1028
  • 290120Z AUTO 26007KT 9999 NCD M07/M12 Q1029
  • 290050Z AUTO 26010KT 9999 NCD M07/M11 Q1029

TAF N/A



MetMap, La meteo Aeronautica in un colpo d'occhio ! - Copyright ORBIFLY Dicembre 2007 - Disclaimer

ORBIFLY MET'MAP TEAM :

Programmazione e sviluppo : Alexandra Zaïnal
Concezione : Baudouin d'Aumeries
Aiuto per la programmazione : Marc-Olivier Méhu
Supporto tecnico e logistico : Manuel Goepfert
Aiuto per la traduzione : Arnaldo La Scala

Contatto : metmap@orbifly.com




FONTI E CREDITI :

   NOAA